| time (UTC) | temp F | wind direction | speed MPH | gust MPH | rain 1hr in | rain 24hr in | rain mn in | humidity % | barometer mb |
| 20260831172537 | 57 | 234 | 2.0 | 6.0 | 0.00 | 0.00 | 0.00 | 94 | 1013.5 |
| 20260831172039 | 57 | 232 | 3.0 | 6.0 | 0.00 | 0.00 | 0.00 | 94 | 1013.6 |
| 20260831171602 | 57 | 211 | 2.0 | 5.0 | 0.00 | 0.00 | 0.00 | 94 | 1013.5 |
| 20260831171037 | 57 | 228 | 2.0 | 5.0 | 0.00 | 0.00 | 0.00 | 94 | 1013.4 |
| 20260831170539 | 57 | 230 | 2.0 | 6.0 | 0.00 | 0.00 | 0.00 | 94 | 1013.5 |
| 20260831170056 | 57 | 234 | 2.0 | 6.0 | 0.00 | 0.00 | 0.00 | 94 | 1013.4 |
| 20260831165536 | 57 | 227 | 3.0 | 6.0 | 0.00 | 0.00 | 0.00 | 94 | 1013.3 |
| 20260831165036 | 57 | 234 | 2.0 | 4.0 | 0.00 | 0.00 | 0.00 | 93 | 1013.2 |
| 20260831164604 | 57 | 223 | 2.0 | 5.0 | 0.00 | 0.00 | 0.00 | 93 | 1013.3 |
| 20260831164038 | 57 | 235 | 3.0 | 5.0 | 0.00 | 0.00 | 0.00 | 93 | 1013.2 |
| 20260831163537 | 57 | 200 | 2.0 | 5.0 | 0.00 | 0.00 | 0.00 | 93 | 1013.2 |
| 20260831163053 | 57 | 238 | 3.0 | 5.0 | 0.00 | 0.00 | 0.00 | 93 | 1013.2 |
| 20260831162538 | 57 | 223 | 2.0 | 6.0 | 0.00 | 0.00 | 0.00 | 93 | 1013.1 |
| 20260831162037 | 57 | 213 | 3.0 | 6.0 | 0.00 | 0.00 | 0.00 | 93 | 1013.1 |
| 20260831161551 | 57 | 234 | 3.0 | 5.0 | 0.00 | 0.00 | 0.00 | 93 | 1013.0 |
| 20260831161037 | 57 | 221 | 2.0 | 4.0 | 0.00 | 0.00 | 0.00 | 93 | 1013.0 |
| 20260831160536 | 57 | 214 | 2.0 | 6.0 | 0.00 | 0.00 | 0.00 | 93 | 1012.9 |
| 20260831160054 | 57 | 234 | 2.0 | 6.0 | 0.00 | 0.00 | 0.00 | 93 | 1013.0 |
| 20260831155539 | 57 | 233 | 2.0 | 5.0 | 0.00 | 0.00 | 0.00 | 93 | 1012.9 |
| 20260831155038 | 57 | 227 | 2.0 | 5.0 | 0.00 | 0.00 | 0.00 | 92 | 1012.8 |
| 20260831154620 | 57 | 184 | 2.0 | 5.0 | 0.00 | 0.00 | 0.00 | 92 | 1012.8 |
| 20260831154038 | 57 | 232 | 2.0 | 5.0 | 0.00 | 0.00 | 0.00 | 92 | 1012.9 |
| 20260831153538 | 57 | 237 | 2.0 | 5.0 | 0.00 | 0.00 | 0.00 | 92 | 1012.9 |
| 20260831153050 | 57 | 241 | 2.0 | 5.0 | 0.00 | 0.00 | 0.00 | 92 | 1012.8 |
| 20260831152537 | 57 | 236 | 2.0 | 5.0 | 0.00 | 0.00 | 0.00 | 92 | 1012.8 |
| 20260831152037 | 57 | 219 | 2.0 | 5.0 | 0.00 | 0.00 | 0.00 | 92 | 1012.8 |
| 20260831151556 | 57 | 232 | 2.0 | 5.0 | 0.00 | 0.00 | 0.00 | 92 | 1012.7 |
| 20260831151040 | 57 | 224 | 2.0 | 5.0 | 0.00 | 0.00 | 0.00 | 92 | 1012.7 |
| 20260831150538 | 57 | 222 | 2.0 | 5.0 | 0.00 | 0.00 | 0.00 | 92 | 1012.7 |
| 20260831150054 | 57 | 220 | 2.0 | 5.0 | 0.00 | 0.00 | 0.00 | 92 | 1012.7 |
| 20260831145537 | 57 | 195 | 2.0 | 5.0 | 0.00 | 0.00 | 0.00 | 91 | 1012.7 |
| 20260831145037 | 57 | 229 | 2.0 | 5.0 | 0.00 | 0.00 | 0.00 | 91 | 1012.6 |
| 20260831144552 | 57 | 221 | 2.0 | 5.0 | 0.00 | 0.00 | 0.00 | 91 | 1012.6 |
| 20260831144038 | 57 | 231 | 2.0 | 5.0 | 0.00 | 0.00 | 0.00 | 91 | 1012.5 |
| 20260831143537 | 57 | 227 | 2.0 | 4.0 | 0.00 | 0.00 | 0.00 | 91 | 1012.4 |
| 20260831143108 | 57 | 213 | 2.0 | 4.0 | 0.00 | 0.00 | 0.00 | 91 | 1012.4 |
| 20260831142539 | 57 | 201 | 2.0 | 5.0 | 0.00 | 0.00 | 0.00 | 91 | 1012.4 |
| 20260831142038 | 56 | 232 | 2.0 | 5.0 | 0.00 | 0.00 | 0.00 | 91 | 1012.2 |
| 20260831141604 | 56 | 236 | 3.0 | 5.0 | 0.00 | 0.00 | 0.00 | 91 | 1012.2 |
| 20260831141035 | 56 | 232 | 2.0 | 5.0 | 0.00 | 0.00 | 0.00 | 91 | 1012.2 |
| 20260831140537 | 57 | 239 | 2.0 | 5.0 | 0.00 | 0.00 | 0.00 | 91 | 1012.1 |
| 20260831135537 | 56 | 241 | 3.0 | 5.0 | 0.00 | 0.00 | 0.00 | 91 | 1012.0 |
| 20260831135036 | 56 | 229 | 2.0 | 5.0 | 0.00 | 0.00 | 0.00 | 91 | 1011.9 |
| 20260831134556 | 56 | 249 | 2.0 | 5.0 | 0.00 | 0.00 | 0.00 | 91 | 1011.9 |
| 20260831134036 | 56 | 249 | 2.0 | 5.0 | 0.00 | 0.00 | 0.00 | 91 | 1011.9 |
| 20260831133537 | 56 | 247 | 2.0 | 5.0 | 0.00 | 0.00 | 0.00 | 90 | 1011.9 |
| 20260831133054 | 57 | 247 | 2.0 | 5.0 | 0.00 | 0.00 | 0.00 | 90 | 1011.8 |
| 20260831132539 | 57 | 235 | 3.0 | 5.0 | 0.00 | 0.00 | 0.00 | 90 | 1011.8 |
| 20260831132040 | 57 | 232 | 2.0 | 6.0 | 0.00 | 0.00 | 0.00 | 90 | 1011.8 |
| 20260831131548 | 57 | 242 | 2.0 | 6.0 | 0.00 | 0.00 | 0.00 | 90 | 1011.9 |
| 20260831131037 | 57 | 219 | 3.0 | 7.0 | 0.00 | 0.00 | 0.00 | 90 | 1011.9 |
| 20260831130537 | 57 | 228 | 2.0 | 7.0 | 0.00 | 0.00 | 0.00 | 89 | 1011.9 |
| 20260831130105 | 57 | 238 | 3.0 | 7.0 | 0.00 | 0.00 | 0.00 | 89 | 1011.8 |
| 20260831125537 | 57 | 263 | 3.0 | 7.0 | 0.00 | 0.00 | 0.00 | 89 | 1011.7 |
| 20260831125037 | 57 | 232 | 3.0 | 6.0 | 0.00 | 0.00 | 0.00 | 89 | 1011.6 |
| 20260831124556 | 57 | 243 | 3.0 | 7.0 | 0.00 | 0.00 | 0.00 | 89 | 1011.7 |
| 20260831124037 | 57 | 239 | 3.0 | 7.0 | 0.00 | 0.00 | 0.00 | 89 | 1011.7 |
| 20260831123537 | 57 | 231 | 3.0 | 7.0 | 0.00 | 0.00 | 0.00 | 89 | 1011.7 |
| 20260831123052 | 57 | 238 | 3.0 | 7.0 | 0.00 | 0.00 | 0.00 | 89 | 1011.7 |
| 20260831122537 | 57 | 238 | 3.0 | 7.0 | 0.00 | 0.00 | 0.00 | 88 | 1011.7 |
| 20260831122037 | 57 | 236 | 4.0 | 7.0 | 0.00 | 0.00 | 0.00 | 89 | 1011.8 |
| 20260831121558 | 57 | 227 | 2.0 | 7.0 | 0.00 | 0.00 | 0.00 | 88 | 1011.7 |
| 20260831121037 | 57 | 240 | 4.0 | 7.0 | 0.00 | 0.00 | 0.00 | 88 | 1011.6 |
| 20260831120538 | 57 | 239 | 2.0 | 5.0 | 0.00 | 0.00 | 0.00 | 89 | 1011.5 |
| 20260831120100 | 57 | 252 | 3.0 | 6.0 | 0.00 | 0.00 | 0.00 | 89 | 1011.5 |
| 20260831115537 | 57 | 221 | 3.0 | 6.0 | 0.00 | 0.00 | 0.00 | 88 | 1011.5 |
| 20260831115036 | 57 | 227 | 2.0 | 6.0 | 0.00 | 0.00 | 0.00 | 89 | 1011.4 |
| 20260831114553 | 57 | 223 | 3.0 | 6.0 | 0.00 | 0.00 | 0.00 | 88 | 1011.5 |
| 20260831114039 | 57 | 239 | 3.0 | 7.0 | 0.00 | 0.00 | 0.00 | 88 | 1011.5 |
| 20260831113536 | 57 | 188 | 4.0 | 8.0 | 0.00 | 0.00 | 0.00 | 88 | 1011.5 |
| 20260831113110 | 57 | 252 | 4.0 | 8.0 | 0.00 | 0.00 | 0.00 | 88 | 1011.5 |
| 20260831112537 | 57 | 219 | 4.0 | 7.0 | 0.00 | 0.00 | 0.00 | 88 | 1011.5 |
| 20260831112037 | 57 | 228 | 3.0 | 6.0 | 0.00 | 0.00 | 0.00 | 88 | 1011.4 |
| 20260831111547 | 57 | 230 | 3.0 | 6.0 | 0.00 | 0.00 | 0.00 | 88 | 1011.6 |
| 20260831111037 | 57 | 215 | 3.0 | 6.0 | 0.00 | 0.00 | 0.00 | 88 | 1011.6 |
| 20260831110539 | 57 | 224 | 3.0 | 8.0 | 0.00 | 0.00 | 0.00 | 88 | 1011.6 |
| 20260831110056 | 57 | 184 | 4.0 | 8.0 | 0.00 | 0.00 | 0.00 | 88 | 1011.7 |
| 20260831105538 | 57 | 231 | 3.0 | 8.0 | 0.00 | 0.00 | 0.00 | 88 | 1011.6 |
| 20260831105037 | 57 | 211 | 5.0 | 8.0 | 0.00 | 0.00 | 0.00 | 88 | 1011.5 |
| 20260831104553 | 57 | 207 | 4.0 | 7.0 | 0.00 | 0.00 | 0.00 | 88 | 1011.5 |
| 20260831104038 | 57 | 234 | 3.0 | 7.0 | 0.00 | 0.00 | 0.00 | 88 | 1011.4 |
| 20260831103537 | 57 | 231 | 3.0 | 7.0 | 0.00 | 0.00 | 0.00 | 88 | 1011.4 |
| 20260831103056 | 57 | 249 | 3.0 | 7.0 | 0.00 | 0.00 | 0.00 | 89 | 1011.4 |
| 20260831102537 | 57 | 232 | 3.0 | 7.0 | 0.00 | 0.00 | 0.00 | 88 | 1011.3 |
| 20260831102038 | 57 | 206 | 3.0 | 7.0 | 0.00 | 0.00 | 0.00 | 88 | 1011.3 |
| 20260831101550 | 57 | 228 | 3.0 | 7.0 | 0.00 | 0.00 | 0.00 | 88 | 1011.4 |
| 20260831101037 | 57 | 210 | 2.0 | 6.0 | 0.00 | 0.00 | 0.00 | 88 | 1011.4 |
| 20260831100539 | 57 | 229 | 3.0 | 6.0 | 0.00 | 0.00 | 0.00 | 88 | 1011.3 |
| 20260831100056 | 57 | 237 | 3.0 | 7.0 | 0.00 | 0.00 | 0.00 | 88 | 1011.2 |
| 20260831095536 | 57 | 225 | 3.0 | 7.0 | 0.00 | 0.00 | 0.00 | 88 | 1011.2 |
| 20260831095036 | 57 | 202 | 3.0 | 7.0 | 0.00 | 0.00 | 0.00 | 88 | 1011.2 |
| 20260831094558 | 57 | 230 | 3.0 | 7.0 | 0.00 | 0.00 | 0.00 | 88 | 1011.2 |
| 20260831094038 | 57 | 222 | 4.0 | 8.0 | 0.00 | 0.00 | 0.00 | 88 | 1011.2 |
| 20260831093538 | 57 | 227 | 3.0 | 8.0 | 0.00 | 0.00 | 0.00 | 88 | 1011.2 |
| 20260831093051 | 57 | 237 | 3.0 | 7.0 | 0.00 | 0.00 | 0.00 | 88 | 1011.2 |
| 20260831092537 | 57 | 219 | 4.0 | 7.0 | 0.00 | 0.00 | 0.00 | 88 | 1011.2 |
| 20260831092035 | 57 | 194 | 3.0 | 7.0 | 0.00 | 0.00 | 0.00 | 88 | 1011.2 |
| 20260831091555 | 57 | 215 | 4.0 | 7.0 | 0.00 | 0.00 | 0.00 | 88 | 1011.3 |
| 20260831091038 | 57 | 219 | 2.0 | 8.0 | 0.00 | 0.00 | 0.00 | 88 | 1011.3 |
| 20260831090539 | 57 | 223 | 4.0 | 8.0 | 0.00 | 0.00 | 0.00 | 88 | 1011.3 |
| 20260831090106 | 57 | 241 | 4.0 | 8.0 | 0.00 | 0.00 | 0.00 | 88 | 1011.2 |
| 20260831085534 | 57 | 213 | 3.0 | 8.0 | 0.00 | 0.00 | 0.00 | 88 | 1011.2 |
| 20260831085037 | 57 | 177 | 3.0 | 8.0 | 0.00 | 0.00 | 0.00 | 88 | 1011.3 |
| 20260831084553 | 57 | 224 | 4.0 | 8.0 | 0.00 | 0.00 | 0.00 | 88 | 1011.2 |
| 20260831084036 | 57 | 203 | 2.0 | 6.0 | 0.00 | 0.00 | 0.00 | 88 | 1011.3 |
| 20260831083536 | 57 | 224 | 3.0 | 7.0 | 0.00 | 0.00 | 0.00 | 88 | 1011.4 |
| 20260831083049 | 57 | 222 | 4.0 | 7.0 | 0.00 | 0.00 | 0.00 | 88 | 1011.4 |
| 20260831082537 | 57 | 239 | 3.0 | 6.0 | 0.00 | 0.00 | 0.00 | 88 | 1011.5 |
| 20260831082037 | 57 | 215 | 3.0 | 6.0 | 0.00 | 0.00 | 0.00 | 88 | 1011.5 |
| 20260831081559 | 57 | 216 | 3.0 | 6.0 | 0.00 | 0.00 | 0.00 | 88 | 1011.5 |
| 20260831081036 | 57 | 200 | 3.0 | 6.0 | 0.00 | 0.00 | 0.00 | 88 | 1011.6 |
| 20260831080536 | 57 | 214 | 3.0 | 6.0 | 0.00 | 0.00 | 0.00 | 88 | 1011.6 |
| 20260831080056 | 57 | 209 | 3.0 | 7.0 | 0.00 | 0.00 | 0.00 | 88 | 1011.6 |
| 20260831075535 | 57 | 212 | 3.0 | 7.0 | 0.00 | 0.00 | 0.00 | 89 | 1011.6 |
| 20260831075033 | 57 | 227 | 3.0 | 6.0 | 0.00 | 0.00 | 0.00 | 88 | 1011.7 |
| 20260831074553 | 57 | 236 | 3.0 | 7.0 | 0.00 | 0.00 | 0.00 | 89 | 1011.7 |
| 20260831074033 | 57 | 202 | 4.0 | 7.0 | 0.00 | 0.00 | 0.00 | 89 | 1011.7 |
| 20260831073534 | 57 | 212 | 3.0 | 6.0 | 0.00 | 0.00 | 0.00 | 88 | 1011.5 |
| 20260831073058 | 57 | 236 | 3.0 | 6.0 | 0.00 | 0.00 | 0.00 | 89 | 1011.5 |
| 20260831072534 | 57 | 203 | 2.0 | 8.0 | 0.00 | 0.00 | 0.00 | 89 | 1011.6 |
| 20260831072033 | 57 | 225 | 3.0 | 8.0 | 0.00 | 0.00 | 0.00 | 88 | 1011.5 |
| 20260831071557 | 57 | 212 | 3.0 | 6.0 | 0.00 | 0.00 | 0.00 | 88 | 1011.5 |
| 20260831071035 | 57 | 188 | 3.0 | 5.0 | 0.00 | 0.00 | 0.00 | 88 | 1011.6 |
| 20260831070533 | 57 | 243 | 3.0 | 5.0 | 0.00 | 0.00 | 0.00 | 88 | 1011.7 |
| 20260831070055 | 57 | 217 | 2.0 | 5.0 | 0.00 | 0.00 | 0.00 | 88 | 1011.7 |
| 20260831065533 | 57 | 198 | 2.0 | 6.0 | 0.00 | 0.00 | 0.00 | 89 | 1011.7 |
| 20260831065033 | 57 | 224 | 2.0 | 6.0 | 0.00 | 0.00 | 0.00 | 88 | 1011.7 |
| 20260831064601 | 57 | 220 | 3.0 | 6.0 | 0.00 | 0.00 | 0.00 | 88 | 1011.7 |
| 20260831064035 | 57 | 200 | 2.0 | 7.0 | 0.00 | 0.00 | 0.00 | 89 | 1011.7 |
| 20260831063533 | 57 | 232 | 2.0 | 7.0 | 0.00 | 0.00 | 0.00 | 88 | 1011.7 |
| 20260831063054 | 57 | 211 | 3.0 | 7.0 | 0.00 | 0.00 | 0.00 | 88 | 1011.7 |
| 20260831062537 | 57 | 227 | 3.0 | 6.0 | 0.00 | 0.00 | 0.00 | 89 | 1011.8 |
| 20260831062040 | 57 | 201 | 3.0 | 6.0 | 0.00 | 0.00 | 0.00 | 89 | 1011.8 |
| 20260831061603 | 57 | 205 | 3.0 | 6.0 | 0.00 | 0.00 | 0.00 | 88 | 1011.7 |
| 20260831061033 | 57 | 209 | 2.0 | 7.0 | 0.00 | 0.00 | 0.00 | 88 | 1011.8 |
| 20260831060533 | 57 | 242 | 3.0 | 7.0 | 0.00 | 0.00 | 0.00 | 89 | 1011.8 |
| 20260831060054 | 57 | 223 | 3.0 | 6.0 | 0.00 | 0.00 | 0.00 | 89 | 1011.8 |
| 20260831055537 | 57 | 219 | 3.0 | 6.0 | 0.00 | 0.00 | 0.00 | 89 | 1011.8 |
| 20260831055034 | 57 | 196 | 2.0 | 6.0 | 0.00 | 0.00 | 0.00 | 89 | 1011.7 |
| 20260831054607 | 57 | 211 | 3.0 | 6.0 | 0.00 | 0.00 | 0.00 | 89 | 1011.7 |
| 20260831054038 | 57 | 204 | 3.0 | 5.0 | 0.00 | 0.00 | 0.00 | 89 | 1011.7 |
| 20260831053537 | 57 | 192 | 2.0 | 5.0 | 0.00 | 0.00 | 0.00 | 88 | 1011.7 |
| 20260831053057 | 57 | 225 | 3.0 | 5.0 | 0.00 | 0.00 | 0.00 | 89 | 1011.7 |
| 20260831052537 | 57 | 211 | 3.0 | 5.0 | 0.00 | 0.00 | 0.00 | 89 | 1011.7 |
| 20260831052034 | 57 | 250 | 2.0 | 6.0 | 0.00 | 0.00 | 0.00 | 89 | 1011.7 |
| 20260831051610 | 57 | 231 | 3.0 | 6.0 | 0.00 | 0.00 | 0.00 | 89 | 1011.8 |
| 20260831051033 | 57 | 215 | 3.0 | 6.0 | 0.00 | 0.00 | 0.00 | 89 | 1011.8 |
| 20260831050533 | 57 | 210 | 3.0 | 5.0 | 0.00 | 0.00 | 0.00 | 89 | 1011.8 |
| 20260831050100 | 57 | 221 | 3.0 | 5.0 | 0.00 | 0.00 | 0.00 | 89 | 1011.8 |
| 20260831045533 | 57 | 238 | 2.0 | 5.0 | 0.00 | 0.00 | 0.00 | 89 | 1011.9 |
| 20260831045035 | 57 | 202 | 3.0 | 5.0 | 0.00 | 0.00 | 0.00 | 89 | 1011.9 |
| 20260831044607 | 57 | 227 | 2.0 | 5.0 | 0.00 | 0.00 | 0.00 | 89 | 1011.8 |
| 20260831044033 | 57 | 218 | 3.0 | 6.0 | 0.00 | 0.00 | 0.00 | 89 | 1011.9 |
| 20260831043534 | 57 | 217 | 3.0 | 6.0 | 0.00 | 0.00 | 0.00 | 89 | 1011.9 |
| 20260831043053 | 57 | 243 | 2.0 | 7.0 | 0.00 | 0.00 | 0.00 | 89 | 1011.9 |
| 20260831042536 | 57 | 224 | 3.0 | 7.0 | 0.00 | 0.00 | 0.00 | 89 | 1011.8 |
| 20260831042036 | 57 | 242 | 3.0 | 5.0 | 0.00 | 0.00 | 0.00 | 89 | 1011.9 |
| 20260831041600 | 57 | 213 | 2.0 | 6.0 | 0.00 | 0.00 | 0.00 | 89 | 1011.8 |
| 20260831041037 | 57 | 221 | 2.0 | 8.0 | 0.00 | 0.00 | 0.00 | 90 | 1011.8 |
| 20260831040534 | 57 | 223 | 2.0 | 8.0 | 0.00 | 0.00 | 0.00 | 90 | 1011.8 |
| 20260831040054 | 57 | 211 | 3.0 | 8.0 | 0.00 | 0.00 | 0.00 | 90 | 1011.8 |
| 20260831035536 | 57 | 229 | 3.0 | 6.0 | 0.00 | 0.00 | 0.00 | 90 | 1011.7 |
| 20260831035036 | 57 | 225 | 2.0 | 6.0 | 0.00 | 0.00 | 0.00 | 90 | 1011.7 |
| 20260831034553 | 57 | 218 | 2.0 | 6.0 | 0.00 | 0.00 | 0.00 | 90 | 1011.7 |
| 20260831034037 | 57 | 222 | 2.0 | 6.0 | 0.00 | 0.00 | 0.00 | 91 | 1011.7 |
| 20260831033533 | 57 | 217 | 2.0 | 5.0 | 0.00 | 0.00 | 0.00 | 91 | 1011.7 |
| 20260831033052 | 57 | 229 | 2.0 | 6.0 | 0.00 | 0.00 | 0.00 | 91 | 1011.7 |
| 20260831032533 | 57 | 217 | 3.0 | 6.0 | 0.00 | 0.00 | 0.00 | 90 | 1011.6 |
| 20260831032033 | 57 | 223 | 3.0 | 5.0 | 0.00 | 0.00 | 0.00 | 90 | 1011.6 |
| 20260831031555 | 57 | 256 | 3.0 | 5.0 | 0.00 | 0.00 | 0.00 | 90 | 1011.6 |
| 20260831031032 | 57 | 186 | 3.0 | 6.0 | 0.00 | 0.00 | 0.00 | 90 | 1011.6 |
| 20260831030535 | 57 | 243 | 3.0 | 6.0 | 0.00 | 0.00 | 0.00 | 90 | 1011.6 |
| 20260831030055 | 57 | 221 | 3.0 | 6.0 | 0.00 | 0.00 | 0.00 | 90 | 1011.5 |
| 20260831025536 | 57 | 226 | 2.0 | 5.0 | 0.00 | 0.00 | 0.00 | 90 | 1011.6 |
| 20260831025033 | 57 | 234 | 3.0 | 6.0 | 0.00 | 0.00 | 0.00 | 90 | 1011.5 |
| 20260831024553 | 57 | 238 | 2.0 | 6.0 | 0.00 | 0.00 | 0.00 | 90 | 1011.5 |
| 20260831024035 | 57 | 230 | 3.0 | 7.0 | 0.00 | 0.00 | 0.00 | 90 | 1011.5 |
| 20260831023533 | 57 | 199 | 3.0 | 7.0 | 0.00 | 0.00 | 0.00 | 90 | 1011.5 |
| 20260831023049 | 56 | 212 | 3.0 | 7.0 | 0.00 | 0.00 | 0.00 | 90 | 1011.5 |
| 20260831022533 | 56 | 189 | 3.0 | 6.0 | 0.00 | 0.00 | 0.00 | 90 | 1011.6 |
| 20260831022033 | 56 | 212 | 3.0 | 6.0 | 0.00 | 0.00 | 0.00 | 90 | 1011.5 |
| 20260831021554 | 56 | 205 | 2.0 | 7.0 | 0.00 | 0.00 | 0.00 | 90 | 1011.6 |
| 20260831021036 | 56 | 237 | 3.0 | 7.0 | 0.00 | 0.00 | 0.00 | 90 | 1011.7 |
| 20260831020537 | 56 | 241 | 2.0 | 7.0 | 0.00 | 0.00 | 0.00 | 90 | 1011.7 |
| 20260831020056 | 56 | 203 | 4.0 | 7.0 | 0.00 | 0.00 | 0.00 | 90 | 1011.7 |
| 20260831015533 | 56 | 183 | 2.0 | 7.0 | 0.00 | 0.00 | 0.00 | 90 | 1011.7 |
| 20260831015035 | 56 | 224 | 3.0 | 7.0 | 0.00 | 0.00 | 0.00 | 90 | 1011.7 |
| 20260831014552 | 56 | 238 | 3.0 | 7.0 | 0.00 | 0.00 | 0.00 | 90 | 1011.7 |
| 20260831014033 | 56 | 203 | 3.0 | 8.0 | 0.00 | 0.00 | 0.00 | 90 | 1011.7 |
| 20260831013536 | 56 | 227 | 3.0 | 8.0 | 0.00 | 0.00 | 0.00 | 90 | 1011.8 |
| 20260831013101 | 56 | 208 | 3.0 | 7.0 | 0.00 | 0.00 | 0.00 | 90 | 1011.8 |
| 20260831012539 | 56 | 221 | 3.0 | 7.0 | 0.00 | 0.00 | 0.00 | 89 | 1011.9 |
| 20260831012036 | 57 | 202 | 3.0 | 7.0 | 0.00 | 0.00 | 0.00 | 89 | 1011.8 |
| 20260831011601 | 57 | 199 | 3.0 | 7.0 | 0.00 | 0.00 | 0.00 | 89 | 1011.9 |
| 20260831011035 | 57 | 228 | 3.0 | 7.0 | 0.00 | 0.00 | 0.00 | 89 | 1011.9 |
| 20260831010536 | 57 | 204 | 3.0 | 7.0 | 0.00 | 0.00 | 0.00 | 89 | 1011.9 |
| 20260831010056 | 57 | 207 | 4.0 | 7.0 | 0.00 | 0.00 | 0.00 | 89 | 1011.9 |
| 20260831005535 | 57 | 220 | 3.0 | 7.0 | 0.00 | 0.00 | 0.00 | 88 | 1011.9 |
| 20260831005035 | 58 | 212 | 3.0 | 7.0 | 0.00 | 0.00 | 0.00 | 88 | 1011.9 |
| 20260831004553 | 58 | 202 | 3.0 | 7.0 | 0.00 | 0.00 | 0.00 | 87 | 1011.9 |
| 20260831004038 | 58 | 244 | 4.0 | 8.0 | 0.00 | 0.00 | 0.00 | 87 | 1011.9 |
| 20260831003539 | 59 | 236 | 3.0 | 8.0 | 0.00 | 0.00 | 0.00 | 86 | 1011.9 |
| 20260831003106 | 59 | 221 | 4.0 | 8.0 | 0.00 | 0.00 | 0.00 | 86 | 1011.9 |
| 20260831002537 | 59 | 228 | 3.0 | 7.0 | 0.00 | 0.00 | 0.00 | 86 | 1012.0 |
| 20260831002041 | 59 | 194 | 3.0 | 6.0 | 0.00 | 0.00 | 0.00 | 86 | 1012.0 |
| 20260831001556 | 59 | 198 | 3.0 | 7.0 | 0.00 | 0.00 | 0.00 | 86 | 1012.0 |
| 20260831001037 | 59 | 237 | 3.0 | 7.0 | 0.00 | 0.00 | 0.00 | 87 | 1012.0 |
| 20260831000538 | 58 | 217 | 3.0 | 6.0 | 0.00 | 0.00 | 0.00 | 87 | 1012.1 |
| 20260831000055 | 58 | 229 | 4.0 | 6.0 | 0.00 | 0.00 | 0.00 | 87 | 1012.1 |
| 20260830235537 | 58 | 213 | 3.0 | 5.0 | 0.00 | 0.00 | 0.00 | 86 | 1012.1 |
| 20260830235041 | 59 | 234 | 3.0 | 5.0 | 0.00 | 0.00 | 0.00 | 86 | 1012.1 |
| 20260830234555 | 59 | 219 | 2.0 | 5.0 | 0.00 | 0.00 | 0.00 | 86 | 1012.1 |
| 20260830234038 | 59 | 265 | 2.0 | 6.0 | 0.00 | 0.00 | 0.00 | 87 | 1012.1 |
| 20260830233538 | 58 | 245 | 2.0 | 6.0 | 0.00 | 0.00 | 0.00 | 85 | 1012.2 |
| 20260830233100 | 59 | 223 | 3.0 | 6.0 | 0.00 | 0.00 | 0.00 | 85 | 1012.2 |
| 20260830232538 | 60 | 224 | 3.0 | 7.0 | 0.00 | 0.00 | 0.00 | 85 | 1012.2 |
| 20260830232038 | 59 | 224 | 3.0 | 7.0 | 0.00 | 0.00 | 0.00 | 84 | 1012.2 |
| 20260830231556 | 60 | 232 | 3.0 | 7.0 | 0.00 | 0.00 | 0.00 | 84 | 1012.3 |
| 20260830231037 | 60 | 227 | 3.0 | 6.0 | 0.00 | 0.00 | 0.00 | 83 | 1012.3 |
| 20260830230537 | 60 | 188 | 3.0 | 7.0 | 0.00 | 0.00 | 0.00 | 83 | 1012.3 |
| 20260830230053 | 60 | 207 | 3.0 | 7.0 | 0.00 | 0.00 | 0.00 | 83 | 1012.3 |
| 20260830225537 | 61 | 221 | 2.0 | 7.0 | 0.00 | 0.00 | 0.00 | 83 | 1012.3 |
| 20260830225038 | 61 | 271 | 2.0 | 7.0 | 0.00 | 0.00 | 0.00 | 82 | 1012.3 |
| 20260830224548 | 61 | 238 | 3.0 | 8.0 | 0.00 | 0.00 | 0.00 | 81 | 1012.3 |
| 20260830224037 | 62 | 232 | 4.0 | 8.0 | 0.00 | 0.00 | 0.00 | 79 | 1012.2 |
| 20260830223537 | 62 | 209 | 4.0 | 7.0 | 0.00 | 0.00 | 0.00 | 80 | 1012.3 |
| 20260830223109 | 61 | 215 | 4.0 | 8.0 | 0.00 | 0.00 | 0.00 | 81 | 1012.4 |
| 20260830222538 | 62 | 250 | 4.0 | 8.0 | 0.00 | 0.00 | 0.00 | 81 | 1012.4 |
| 20260830222037 | 62 | 186 | 4.0 | 8.0 | 0.00 | 0.00 | 0.00 | 79 | 1012.4 |
| 20260830221553 | 62 | 237 | 3.0 | 5.0 | 0.00 | 0.00 | 0.00 | 80 | 1012.5 |
| 20260830221037 | 62 | 231 | 3.0 | 7.0 | 0.00 | 0.00 | 0.00 | 80 | 1012.5 |
| 20260830220538 | 62 | 251 | 4.0 | 8.0 | 0.00 | 0.00 | 0.00 | 80 | 1012.6 |
| 20260830220053 | 62 | 210 | 4.0 | 8.0 | 0.00 | 0.00 | 0.00 | 80 | 1012.9 |
| 20260830215538 | 63 | 234 | 3.0 | 7.0 | 0.00 | 0.00 | 0.00 | 80 | 1012.9 |
| 20260830215038 | 62 | 228 | 4.0 | 7.0 | 0.00 | 0.00 | 0.00 | 81 | 1013.0 |
| 20260830214615 | 62 | 205 | 3.0 | 8.0 | 0.00 | 0.00 | 0.00 | 80 | 1013.1 |
| 20260830214037 | 62 | 215 | 4.0 | 9.0 | 0.00 | 0.00 | 0.00 | 82 | 1013.1 |
| 20260830213537 | 62 | 220 | 4.0 | 10.0 | 0.00 | 0.00 | 0.00 | 82 | 1013.1 |
| 20260830213059 | 61 | 213 | 5.0 | 10.0 | 0.00 | 0.00 | 0.00 | 81 | 1013.2 |
| 20260830212538 | 62 | 223 | 4.0 | 8.0 | 0.00 | 0.00 | 0.00 | 81 | 1013.2 |
| 20260830212038 | 61 | 202 | 4.0 | 8.0 | 0.00 | 0.00 | 0.00 | 81 | 1013.3 |
| 20260830211554 | 62 | 207 | 4.0 | 9.0 | 0.00 | 0.00 | 0.00 | 81 | 1013.3 |
| 20260830211038 | 62 | 240 | 4.0 | 9.0 | 0.00 | 0.00 | 0.00 | 81 | 1013.2 |
| 20260830210538 | 61 | 254 | 4.0 | 8.0 | 0.00 | 0.00 | 0.00 | 81 | 1013.2 |
| 20260830210109 | 62 | 232 | 4.0 | 8.0 | 0.00 | 0.00 | 0.00 | 80 | 1013.2 |
| 20260830205537 | 61 | 217 | 5.0 | 7.0 | 0.00 | 0.00 | 0.00 | 82 | 1013.2 |
| 20260830205037 | 61 | 223 | 4.0 | 9.0 | 0.00 | 0.00 | 0.00 | 82 | 1013.3 |
| 20260830204600 | 61 | 209 | 4.0 | 9.0 | 0.00 | 0.00 | 0.00 | 82 | 1013.4 |
| 20260830204037 | 61 | 193 | 4.0 | 9.0 | 0.00 | 0.00 | 0.00 | 82 | 1013.4 |
| 20260830203537 | 61 | 230 | 4.0 | 8.0 | 0.00 | 0.00 | 0.00 | 82 | 1013.4 |
| 20260830203103 | 61 | 215 | 4.0 | 7.0 | 0.00 | 0.00 | 0.00 | 83 | 1013.4 |
| 20260830202537 | 60 | 232 | 4.0 | 7.0 | 0.00 | 0.00 | 0.00 | 83 | 1013.4 |
| 20260830202037 | 60 | 229 | 3.0 | 7.0 | 0.00 | 0.00 | 0.00 | 84 | 1013.4 |
| 20260830201557 | 60 | 238 | 4.0 | 7.0 | 0.00 | 0.00 | 0.00 | 83 | 1013.3 |
| 20260830201037 | 60 | 210 | 4.0 | 7.0 | 0.00 | 0.00 | 0.00 | 85 | 1013.4 |
| 20260830200537 | 60 | 210 | 4.0 | 8.0 | 0.00 | 0.00 | 0.00 | 84 | 1013.5 |
| 20260830200053 | 60 | 233 | 4.0 | 8.0 | 0.00 | 0.00 | 0.00 | 85 | 1013.6 |
| 20260830195537 | 60 | 223 | 3.0 | 8.0 | 0.00 | 0.00 | 0.00 | 85 | 1013.6 |
| 20260830195040 | 60 | 235 | 4.0 | 8.0 | 0.00 | 0.00 | 0.00 | 85 | 1013.6 |
| 20260830194552 | 59 | 207 | 4.0 | 8.0 | 0.00 | 0.00 | 0.00 | 85 | 1013.7 |
| 20260830194037 | 59 | 225 | 4.0 | 8.0 | 0.00 | 0.00 | 0.00 | 86 | 1013.7 |
| 20260830193540 | 59 | 195 | 4.0 | 7.0 | 0.00 | 0.00 | 0.00 | 86 | 1013.7 |
| 20260830193059 | 59 | 229 | 4.0 | 8.0 | 0.00 | 0.00 | 0.00 | 86 | 1013.8 |
| 20260830192537 | 59 | 211 | 4.0 | 8.0 | 0.00 | 0.00 | 0.00 | 87 | 1013.8 |
| 20260830192038 | 58 | 223 | 3.0 | 8.0 | 0.00 | 0.00 | 0.00 | 87 | 1013.8 |
| 20260830191555 | 58 | 246 | 3.0 | 8.0 | 0.00 | 0.00 | 0.00 | 88 | 1013.7 |
| 20260830191037 | 58 | 229 | 4.0 | 7.0 | 0.00 | 0.00 | 0.00 | 88 | 1013.6 |
| 20260830190539 | 58 | 219 | 3.0 | 6.0 | 0.00 | 0.00 | 0.00 | 89 | 1013.6 |
| 20260830190124 | 58 | 234 | 3.0 | 6.0 | 0.00 | 0.00 | 0.00 | 89 | 1013.6 |
| 20260830185537 | 58 | 228 | 4.0 | 6.0 | 0.00 | 0.00 | 0.00 | 89 | 1013.6 |
| 20260830185036 | 58 | 220 | 3.0 | 6.0 | 0.00 | 0.00 | 0.00 | 89 | 1013.7 |
| 20260830184554 | 58 | 238 | 3.0 | 6.0 | 0.00 | 0.00 | 0.00 | 89 | 1013.8 |
| 20260830184036 | 58 | 221 | 3.0 | 6.0 | 0.00 | 0.00 | 0.00 | 89 | 1013.8 |
| 20260830183537 | 58 | 208 | 3.0 | 6.0 | 0.00 | 0.00 | 0.00 | 89 | 1013.8 |
| 20260830183103 | 57 | 244 | 3.0 | 7.0 | 0.00 | 0.00 | 0.00 | 89 | 1013.8 |
| 20260830182537 | 57 | 223 | 3.0 | 7.0 | 0.00 | 0.00 | 0.00 | 89 | 1013.8 |
| 20260830182038 | 57 | 237 | 3.0 | 6.0 | 0.00 | 0.00 | 0.00 | 89 | 1013.7 |
| 20260830181555 | 57 | 233 | 3.0 | 7.0 | 0.00 | 0.00 | 0.00 | 89 | 1013.7 |
| 20260830181037 | 57 | 205 | 4.0 | 7.0 | 0.00 | 0.00 | 0.00 | 89 | 1013.7 |
| 20260830180537 | 57 | 229 | 3.0 | 7.0 | 0.00 | 0.00 | 0.00 | 90 | 1013.7 |
| 20260830180057 | 57 | 256 | 4.0 | 7.0 | 0.00 | 0.00 | 0.00 | 90 | 1013.7 |
| 20260830175537 | 57 | 244 | 3.0 | 7.0 | 0.00 | 0.00 | 0.00 | 90 | 1013.7 |
| 20260830175037 | 57 | 190 | 3.0 | 7.0 | 0.00 | 0.00 | 0.00 | 90 | 1013.7 |
| 20260830174606 | 57 | 236 | 3.0 | 7.0 | 0.00 | 0.00 | 0.00 | 90 | 1013.7 |
| 20260830174038 | 57 | 234 | 3.0 | 6.0 | 0.00 | 0.00 | 0.00 | 90 | 1013.8 |
| 20260830173537 | 57 | 228 | 3.0 | 6.0 | 0.00 | 0.00 | 0.00 | 90 | 1013.8 |
| 20260830173054 | 57 | 208 | 3.0 | 7.0 | 0.00 | 0.00 | 0.00 | 90 | 1013.7 |